Estación meteorológica de Boí Taüll (Alta Ribagorça, Parc natural d'Aigüestortes)

Consulta los datos en tiempo real de la estación meteorológica de Boí Taüll





Hora UTC 13:00
Temperatura 19.0 ºC
Humedad 45.0 %
Presión 1020.0 hPa
Pluja 0.0 mm
Velocidad viento 22.5 km/h
Dirección viento NNE

Datos diarios 2026-09-02



Hora UTC (invierno +1h; verano +2h)
Temperatura (ºC) Humedad (%) Presión (hPa) Velocidad viento (km/h) Precipitación (mm)
Hora UTC Aire Humedad Presión Vel. Dir. Vel. Max Dir. Intent. máx 5 min.
00:15 14.6 51.0 1018.8 35.4 35.4 0.0
00:30 14.1 50.0 1018.8 35.4 NE 35.4 NE 0.0
00:45 14.7 51.0 1018.7 35.4 35.4 SW 0.0
01:00 14.8 51.0 1018.8 35.4 NE 35.4 NE 0.0
01:15 14.1 54.0 1018.9 35.4 35.4 SW 0.0
01:30 14.0 57.0 1018.9 35.4 NE 35.4 NE 0.0
01:45 13.7 59.0 1019.0 35.4 35.4 SSE 0.0
02:00 13.8 59.0 1019.1 35.4 NE 35.4 NE 0.0
02:15 13.7 61.0 1019.3 35.4 35.4 SW 0.0
02:30 13.3 61.0 1019.2 35.4 NE 35.4 NE 0.0
02:45 13.7 60.0 1019.2 35.4 35.4 SW 0.0
03:00 13.7 57.0 1019.2 35.4 NE 35.4 NE 0.0
03:15 13.4 59.0 1019.2 35.4 35.4 SW 0.0
03:30 13.2 61.0 1019.2 35.4 NE 35.4 NE 0.0
03:45 13.4 58.0 1019.0 35.4 35.4 SW 0.0
04:00 13.6 58.0 1018.9 35.4 NE 35.4 NE 0.0
04:15 13.3 59.0 1018.9 35.4 35.4 SSW 0.0
04:30 13.1 60.0 1018.9 35.4 NE 35.4 NE 0.0
04:45 13.1 63.0 1018.8 35.4 35.4 WSW 0.0
05:00 12.6 65.0 1018.7 35.4 NE 35.4 NE 0.0
05:15 13.2 63.0 1018.6 35.4 35.4 SSW 0.0
05:30 12.9 65.0 1018.5 35.4 NE 35.4 NE 0.0
05:45 13.3 64.0 1018.5 35.4 35.4 SSW 0.0
06:00 13.6 64.0 1018.4 35.4 NE 35.4 NE 0.0
06:15 13.3 69.0 1018.1 35.4 35.4 SW 0.0
06:30 13.4 69.0 1017.9 35.4 NE 35.4 NE 0.0
06:45 13.1 71.0 1017.8 11.3 35.4 NE 0.0
07:00 12.8 72.0 1018.0 12.9 NNE 35.4 NE 0.0
07:15 13.1 72.0 1018.0 12.9 35.4 NE 0.0
07:30 12.8 72.0 1018.3 12.9 NNE 35.4 NE 0.0
07:45 12.4 74.0 1018.5 12.9 35.4 NE 0.0
08:00 12.8 74.0 1018.5 12.9 NNE 35.4 NE 0.0
08:15 12.3 74.0 1018.5 12.9 35.4 NE 0.0
08:30 13.3 70.0 1018.5 12.9 NNE 35.4 NE 0.0
08:45 13.6 70.0 1018.8 12.9 35.4 NE 0.0
09:00 13.7 70.0 1019.0 12.9 NNE 35.4 NE 0.0
09:15 13.7 70.0 1019.0 12.9 35.4 NE 0.0
09:30 14.6 68.0 1019.1 12.9 NNE 35.4 NE 0.0
09:45 16.4 64.0 1019.0 12.9 35.4 NE 0.0
10:00 16.9 64.0 1019.3 12.9 NNE 35.4 NE 0.0
10:15 17.3 62.0 1019.2 12.9 35.4 NE 0.0
10:30 17.3 63.0 1019.2 19.3 NNE 35.4 NE 0.0
10:45 17.9 61.0 1019.3 19.3 35.4 NE 0.0
11:00 18.1 59.0 1019.5 20.9 NNE 35.4 NE 0.0
11:15 17.9 58.0 1019.6 20.9 35.4 NE 0.0
11:30 17.9 57.0 1019.7 22.5 NNE 35.4 NE 0.0
11:45 18.4 51.0 1019.9 22.5 35.4 NE 0.0
12:00 18.4 50.0 1019.9 22.5 NNE 35.4 NE 0.0
12:15 18.8 45.0 1019.7 22.5 35.4 NE 0.0
12:30 19.1 46.0 1019.8 22.5 NNE 35.4 NE 0.0
12:45 19.3 42.0 1019.8 22.5 35.4 NE 0.0
13:00 19.0 45.0 1020.0 22.5 NNE 35.4 NE 0.0
Máxima 19.3 74.0 1020.0 35.4 NE 35.4 NE 0.0
Mínima 12.3 42.0 1017.8
Total 0.0